WetterOnline ( http://www.wetteronline.de )

Wetter aktuell Neubrandenburg

Aktuelles Wetter: Feldberg (115m)

6-stündlich | Neueste Meldungen
Ortszeit Temperatur Wetter
So, 22.04. 14:00 20.3° C fast wolkenlos
So, 22.04. 8:00 11.8° C fast wolkenlos
So, 22.04. 2:00 5.5° C leicht bewölkt
Sa, 21.04. 20:00 13.9° C fast wolkenlos
Sa, 21.04. 14:00 17.7° C wolkenlos
Sa, 21.04. 8:00 12.2° C wolkenlos
Sa, 21.04. 2:00 17.0° C fast wolkenlos
Fr, 20.04. 20:00 21.2° C fast wolkenlos
Ortszeit Temperatur Wetter
So, 22.04. 14:00 20.3° C fast wolkenlos
So, 22.04. 13:50 20.3° C fast wolkenlos
So, 22.04. 13:40 19.5° C fast wolkenlos
So, 22.04. 13:30 19.7° C leicht bewölkt
So, 22.04. 13:20 19.7° C leicht bewölkt
So, 22.04. 13:10 19.3° C leicht bewölkt
So, 22.04. 13:00 18.9° C fast wolkenlos
So, 22.04. 12:30 18.6° C fast wolkenlos
So, 22.04. 12:00 18.4° C wolkenlos
So, 22.04. 11:30 17.6° C fast wolkenlos
So, 22.04. 11:00 16.6° C leicht bewölkt
Ortszeit Relative Feuchte Sichtweite
So, 22.04. 14:00 32% 35 km
So, 22.04. 8:00 68% 21 km
So, 22.04. 2:00 86% 27 km
Sa, 21.04. 20:00 49% 35 km
Sa, 21.04. 14:00 52% 18 km
Sa, 21.04. 8:00 73% 5.0 km
Sa, 21.04. 2:00 58% 13 km
Fr, 20.04. 20:00 48% 26 km
Ortszeit Relative Feuchte Sichtweite
So, 22.04. 14:00 32% 35 km
So, 22.04. 13:50 32% -
So, 22.04. 13:40 33% -
So, 22.04. 13:30 39% 29 km
So, 22.04. 13:20 39% -
So, 22.04. 13:10 35% -
So, 22.04. 13:00 31% 30 km
So, 22.04. 12:30 36% 30 km
So, 22.04. 12:00 45% 28 km
So, 22.04. 11:30 49% 19 km
So, 22.04. 11:00 48% 30 km
Ortszeit Niederschlagsmenge Niederschlagsart
So, 22.04. 14:00 0.0 l/m2 in 6 Std. -
So, 22.04. 8:00 0.0 l/m2 in 12 Std. -
So, 22.04. 2:00 0.0 l/m2 in 6 Std. -
Sa, 21.04. 20:00 0.0 l/m2 in 12 Std. -
Sa, 21.04. 14:00 0.0 l/m2 in 6 Std. -
Sa, 21.04. 8:00 0.0 l/m2 in 12 Std. -
Sa, 21.04. 2:00 0.0 l/m2 in 6 Std. -
Fr, 20.04. 20:00 0.0 l/m2 in 12 Std. -
Ortszeit Niederschlagsmenge Niederschlagsart
So, 22.04. 14:00 0.0 l/m2 in 1 Std. -
So, 22.04. 13:50 keine Meldung -
So, 22.04. 13:40 keine Meldung -
So, 22.04. 13:30 0.0 l/m2 in 1 Std. -
So, 22.04. 13:20 keine Meldung -
So, 22.04. 13:10 keine Meldung -
So, 22.04. 13:00 0.0 l/m2 in 1 Std. -
So, 22.04. 12:30 0.0 l/m2 in 1 Std. -
So, 22.04. 12:00 0.0 l/m2 in 1 Std. -
So, 22.04. 11:30 0.0 l/m2 in 1 Std. -
So, 22.04. 11:00 0.0 l/m2 in 1 Std. -
Ortszeit Stärke Spitze Richtung
km/h Bft. km/h Grad Sektor
So, 22.04. 14:00 2 1 22 310° NW
So, 22.04. 8:00 0 0 7 - -
So, 22.04. 2:00 2 1 11 290° W
Sa, 21.04. 20:00 11 2 31 350° N
Sa, 21.04. 14:00 14 3 29 320° NW
Sa, 21.04. 8:00 13 3 26 320° NW
Sa, 21.04. 2:00 13 3 22 300° NW
Fr, 20.04. 20:00 11 2 35 210° SW
Ortszeit Stärke Spitze Richtung
km/h Bft. km/h Grad Sektor
So, 22.04. 14:00 2 1 22 310° NW
So, 22.04. 13:50 2 1 - 310° NW
So, 22.04. 13:40 6 1 - 180° S
So, 22.04. 13:30 11 2 22 200° S
So, 22.04. 13:20 11 2 - 200° S
So, 22.04. 13:10 7 2 - 170° S
So, 22.04. 13:00 7 2 22 280° W
So, 22.04. 12:30 11 2 22 210° SW
So, 22.04. 12:00 11 2 22 180° S
So, 22.04. 11:30 11 2 22 170° S
So, 22.04. 11:00 15 3 22 180° S
Ortszeit Untergrenze Bedeckung Gattung
total tief tief mittel hoch
So, 22.04. 14:00 8400 m 1/8 0/8 - - -
So, 22.04. 8:00 8100 m 1/8 0/8 - - -
So, 22.04. 2:00 8400 m 3/8 0/8 - - -
Sa, 21.04. 20:00 8700 m 1/8 0/8 - - -
Sa, 21.04. 14:00 - 0/8 0/8 - - -
Sa, 21.04. 8:00 - 0/8 0/8 - - -
Sa, 21.04. 2:00 8400 m 1/8 0/8 - - -
Fr, 20.04. 20:00 8100 m 1/8 0/8 - - -
Ortszeit Bedeckungsgrad in Achtel und Wolkenuntergrenze
So, 22.04. 14:00 1(8400m)
So, 22.04. 13:50 1(8400m)
So, 22.04. 13:40 2(8100m)
So, 22.04. 13:30 3(8100m) 4(9000m)
So, 22.04. 13:20 3(8100m) 4(9000m)
So, 22.04. 13:10 3(8400m)
So, 22.04. 13:00 2(8400m) 5(9000m)
So, 22.04. 12:30 1(9000m)
So, 22.04. 12:00 1(9000m)
So, 22.04. 11:30 2(8700m)
So, 22.04. 11:00 3(8400m)
Ortszeit Luftdruck NN (hPa) Tendenz (hPa in 3 Std.)
So, 22.04. 14:00 1015 - 1,7
So, 22.04. 8:00 1018 - 0,5
So, 22.04. 2:00 1020 - 0,1
Sa, 21.04. 20:00 1020 - 0,4
Sa, 21.04. 14:00 1021 0,0
Sa, 21.04. 8:00 1019 + 1,4
Sa, 21.04. 2:00 1018 - 0,5
Fr, 20.04. 20:00 1018 - 1,7
Ortszeit Luftdruck NN (hPa) Tendenz (hPa in 3 Std.)
So, 22.04. 14:00 1015 - 1,7
So, 22.04. 13:50 1015 keine Meldung
So, 22.04. 13:40 1015 keine Meldung
So, 22.04. 13:30 1015 - 1,6
So, 22.04. 13:20 1015 keine Meldung
So, 22.04. 13:10 1016 keine Meldung
So, 22.04. 13:00 1016 - 1,5
So, 22.04. 12:30 1016 - 1,1
So, 22.04. 12:00 1016 - 1,3
So, 22.04. 11:30 1017 - 1,2
So, 22.04. 11:00 1017 - 0,9
Ortszeit Schneehöhe (cm)
So, 22.04. 14:00 0
So, 22.04. 8:00 0
So, 22.04. 2:00 0
Sa, 21.04. 20:00 0
Sa, 21.04. 14:00 0
Sa, 21.04. 8:00 0
Sa, 21.04. 2:00 0
Fr, 20.04. 20:00 0
Ortszeit Schneehöhe (cm)
So, 22.04. 14:00 0
So, 22.04. 13:50 0
So, 22.04. 13:40 0
So, 22.04. 13:30 0
So, 22.04. 13:20 0
So, 22.04. 13:10 0
So, 22.04. 13:00 0
So, 22.04. 12:30 0
So, 22.04. 12:00 0
So, 22.04. 11:30 0
So, 22.04. 11:00 0
Link zu dieser Seite / Seite empfehlen

Das Wetter in ...